Location: Unspecified
(40.8078°N, 0.0000°E)
Time: 07:31:48
(UTC+00:00)

Cosmos 1125 Rocket - Visible Passes

Search period start: 04 April 2026 00:00
Search period end: 14 April 2026 00:00
Orbit: 753 x 775 km, 74.0° (Epoch: 29 March)

Date Brightness Start Highest point End Pass type
(mag) Time Alt. Az. Time Alt. Az. Time Alt. Az.
4 Apr 6.4 00:16:01 12° N 00:16:01 12° N 00:16:29 10° N visible
4 Apr 6.3 23:38:06 13° N 23:38:06 13° N 23:38:39 10° N visible
5 Apr 6.3 23:00:10 12° NNE 23:00:10 12° NNE 23:00:34 10° NNE visible
6 Apr 6.2 22:22:10 10° NNE 22:22:10 10° NNE 22:22:15 10° NNE visible
7 Apr 6.3 00:02:18 13° NNW 00:02:18 13° NNW 00:03:08 10° NNW visible
7 Apr 6.1 23:24:16 16° N 23:24:16 16° N 23:25:35 10° N visible
8 Apr 5.8 22:46:10 19° N 22:46:10 19° N 22:47:40 10° N visible
9 Apr 5.6 22:08:00 20° NNE 22:08:00 20° NNE 22:09:33 10° NNE visible
9 Apr 6.3 23:48:07 12° NW 23:48:07 12° NW 23:49:17 10° NNW visible
10 Apr 5.5 21:29:43 19° NE 21:29:43 19° NE 21:31:10 10° NNE visible
10 Apr 5.9 23:09:51 19° NW 23:09:51 19° NW 23:12:18 10° N visible
11 Apr 5.5 20:51:21 15° NE 20:51:21 15° NE 20:52:29 10° NE visible
11 Apr 5.3 22:31:28 28° NNW 22:31:28 28° NNW 22:34:39 10° N visible
12 Apr 5.6 20:12:49 11° ENE 20:12:49 11° ENE 20:13:12 10° ENE visible
12 Apr 4.5 21:52:55 43° NNW 21:52:55 43° NNW 21:56:41 10° NNE visible
13 Apr 3.7 21:14:09 61° NE 21:14:09 61° NE 21:18:30 10° NNE visible
13 Apr 6.1 22:54:14 13° WNW 22:55:53 14° NW 22:58:39 10° NNW visible
